When you browse on this site, cookies collect data to enhance your experience and personalize the content and advertising you see.
Visit our Privacy Policy to learn more. By continuing to use the site, you agree to this use of cookies and data.
  • En España
  • Lista de países
  • Para 7 días
  • Temperatura del agua
  • El tiempo en el mapa
  • Informadores
  • user-avatar
    Iniciar sesión

    Tiempo cada hora Lusaka

    Hoy, 18 Febrero, Martes

    Tiempo Temperatura Precipitaciones Viento Presión Humedad
    00:00 +21°C° 0.5 mm 1 mps 656 mmHg 94%
    01:00 +21°C° 0.5 mm 1 mps 656 mmHg 95%
    02:00 +20°C° 0 mm 1 mps 656 mmHg 97%
    03:00 +20°C° 0 mm 1 mps 656 mmHg 96%
    04:00 +20°C° 0 mm 1 mps 656 mmHg 96%
    05:00 +18°C° 0 mm 2 mps 655 mmHg 95%
    06:00 +19°C° 0 mm 2 mps 656 mmHg 93%
    07:00 +20°C° 0 mm 2 mps 657 mmHg 92%
    08:00 +21°C° 0 mm 2 mps 658 mmHg 90%
    09:00 +24°C° 0 mm 2 mps 658 mmHg 82%
    10:00 +25°C° 0 mm 2 mps 658 mmHg 75%
    11:00 +27°C° 0 mm 3 mps 659 mmHg 67%
    12:00 +27°C° 0 mm 2 mps 658 mmHg 65%
    13:00 +28°C° 0 mm 2 mps 658 mmHg 62%
    14:00 +29°C° 0 mm 2 mps 657 mmHg 60%
    15:00 +28°C° 0 mm 2 mps 657 mmHg 64%
    16:00 +28°C° 0 mm 2 mps 656 mmHg 69%
    17:00 +27°C° 0 mm 2 mps 655 mmHg 74%
    18:00 +25°C° 0.1 mm 2 mps 656 mmHg 81%
    19:00 +24°C° 0.1 mm 2 mps 656 mmHg 88%
    20:00 +21°C° 0.1 mm 2 mps 656 mmHg 95%
    21:00 +20°C° 0 mm 2 mps 656 mmHg 95%
    22:00 +20°C° 0 mm 2 mps 656 mmHg 94%
    23:00 +20°C° 0 mm 3 mps 656 mmHg 94%

    Mañana, 19 Febrero, Miércoles

    Tiempo Temperatura Precipitaciones Viento Presión Humedad
    00:00 +20°C° 0 mm 3 mps 656 mmHg 94%
    01:00 +19°C° 0 mm 3 mps 656 mmHg 93%
    02:00 +19°C° 0 mm 3 mps 656 mmHg 92%
    03:00 +19°C° 0 mm 3 mps 656 mmHg 93%
    04:00 +19°C° 0 mm 3 mps 656 mmHg 93%
    05:00 +19°C° 0 mm 4 mps 656 mmHg 93%
    06:00 +20°C° 0 mm 4 mps 657 mmHg 90%
    07:00 +21°C° 0 mm 4 mps 657 mmHg 87%
    08:00 +21°C° 0 mm 4 mps 658 mmHg 84%
    09:00 +23°C° 0.1 mm 4 mps 658 mmHg 80%
    10:00 +25°C° 0.1 mm 4 mps 658 mmHg 75%
    11:00 +26°C° 0.1 mm 3 mps 659 mmHg 71%
    12:00 +26°C° 1 mm 3 mps 658 mmHg 74%
    13:00 +26°C° 1 mm 3 mps 657 mmHg 76%
    14:00 +26°C° 1 mm 3 mps 657 mmHg 79%
    15:00 +26°C° 0.8 mm 3 mps 656 mmHg 81%
    16:00 +25°C° 0.8 mm 3 mps 656 mmHg 83%
    17:00 +25°C° 0.8 mm 3 mps 655 mmHg 85%
    18:00 +24°C° 0.2 mm 2 mps 655 mmHg 89%
    19:00 +21°C° 0.2 mm 2 mps 656 mmHg 92%
    20:00 +20°C° 0.2 mm 2 mps 656 mmHg 96%
    21:00 +20°C° 0 mm 2 mps 656 mmHg 96%
    22:00 +19°C° 0 mm 2 mps 656 mmHg 96%
    23:00 +19°C° 0 mm 2 mps 656 mmHg 95%

    Pasado mañana, 20 Febrero, Jueves

    Tiempo Temperatura Precipitaciones Viento Presión Humedad
    00:00 +19°C° 0.2 mm 2 mps 656 mmHg 96%
    01:00 +19°C° 0.2 mm 2 mps 656 mmHg 96%
    02:00 +18°C° 0.2 mm 2 mps 655 mmHg 96%
    03:00 +18°C° 0.2 mm 2 mps 655 mmHg 96%
    04:00 +18°C° 0.2 mm 2 mps 655 mmHg 96%
    05:00 +18°C° 0.2 mm 2 mps 655 mmHg 96%
    06:00 +19°C° 0.4 mm 2 mps 656 mmHg 94%
    07:00 +20°C° 0.4 mm 2 mps 657 mmHg 91%
    08:00 +21°C° 0.4 mm 3 mps 657 mmHg 89%
    09:00 +23°C° 0.6 mm 2 mps 657 mmHg 87%
    10:00 +24°C° 0.6 mm 2 mps 658 mmHg 84%
    11:00 +25°C° 0.6 mm 2 mps 658 mmHg 82%
    12:00 +26°C° 1.6 mm 1 mps 657 mmHg 79%
    13:00 +27°C° 1.6 mm 1 mps 657 mmHg 77%
    14:00 +27°C° 1.6 mm 1 mps 656 mmHg 74%
    15:00 +27°C° 1.1 mm 1 mps 656 mmHg 78%
    16:00 +26°C° 1.1 mm 1 mps 655 mmHg 81%
    17:00 +25°C° 1.1 mm 1 mps 655 mmHg 85%
    18:00 +22°C° 0.3 mm 0 mps 655 mmHg 87%
    19:00 +21°C° 0.3 mm 0 mps 655 mmHg 89%
    20:00 +20°C° 0.3 mm 0 mps 655 mmHg 92%
    21:00 +19°C° 0.3 mm 0 mps 655 mmHg 92%
    22:00 +19°C° 0.3 mm 0 mps 655 mmHg 92%
    23:00 +19°C° 0.3 mm 0 mps 656 mmHg 92%

    21 Febrero, Viernes

    Tiempo Temperatura Precipitaciones Viento Presión Humedad
    00:00 +18°C° 0.2 mm 0 mps 655 mmHg 92%
    01:00 +18°C° 0.2 mm 0 mps 655 mmHg 93%
    02:00 +18°C° 0.2 mm 0 mps 655 mmHg 93%
    03:00 +18°C° 0.1 mm 0 mps 655 mmHg 93%
    04:00 +18°C° 0.1 mm 0 mps 655 mmHg 93%
    05:00 +18°C° 0.1 mm 0 mps 655 mmHg 93%
    06:00 +19°C° 0 mm 0 mps 656 mmHg 91%
    07:00 +20°C° 0 mm 0 mps 656 mmHg 90%
    08:00 +23°C° 0 mm 1 mps 657 mmHg 88%
    15:00 +28°C° 1.3 mm 1 mps 656 mmHg 72%
    16:00 +27°C° 1.3 mm 1 mps 655 mmHg 78%
    17:00 +26°C° 1.3 mm 2 mps 654 mmHg 84%
    18:00 +25°C° 0.1 mm 1 mps 655 mmHg 86%
    19:00 +24°C° 0.1 mm 1 mps 655 mmHg 88%
    20:00 +22°C° 0.1 mm 1 mps 655 mmHg 90%
    21:00 +22°C° 0 mm 1 mps 655 mmHg 91%
    22:00 +22°C° 0 mm 1 mps 655 mmHg 92%
    23:00 +22°C° 0 mm 1 mps 655 mmHg 93%

    22 Febrero, Sábado

    Tiempo Temperatura Precipitaciones Viento Presión Humedad
    00:00 +21°C° 0 mm 1 mps 655 mmHg 93%
    01:00 +21°C° 0 mm 1 mps 655 mmHg 94%
    02:00 +21°C° 0 mm 1 mps 654 mmHg 95%
    03:00 +20°C° 0 mm 1 mps 654 mmHg 95%
    04:00 +20°C° 0 mm 1 mps 654 mmHg 95%
    05:00 +20°C° 0 mm 1 mps 654 mmHg 95%
    06:00 +21°C° 0 mm 1 mps 655 mmHg 92%
    07:00 +22°C° 0 mm 1 mps 656 mmHg 90%
    08:00 +23°C° 0 mm 1 mps 657 mmHg 88%
    09:00 +25°C° 0 mm 1 mps 657 mmHg 79%
    10:00 +27°C° 0 mm 1 mps 657 mmHg 71%
    11:00 +29°C° 0 mm 2 mps 658 mmHg 62%
    12:00 +29°C° 0.2 mm 1 mps 657 mmHg 62%
    13:00 +29°C° 0.2 mm 1 mps 656 mmHg 62%
    14:00 +30°C° 0.2 mm 1 mps 656 mmHg 62%
    15:00 +29°C° 0.6 mm 1 mps 655 mmHg 68%
    16:00 +28°C° 0.6 mm 1 mps 655 mmHg 73%
    17:00 +27°C° 0.6 mm 1 mps 654 mmHg 79%
    18:00 +25°C° 0.2 mm 1 mps 654 mmHg 82%
    19:00 +24°C° 0.2 mm 1 mps 654 mmHg 86%
    20:00 +22°C° 0.2 mm 1 mps 654 mmHg 89%
    21:00 +22°C° 0 mm 1 mps 654 mmHg 89%
    22:00 +22°C° 0 mm 1 mps 655 mmHg 90%
    23:00 +21°C° 0 mm 1 mps 655 mmHg 91%

    23 Febrero, Domingo

    Tiempo Temperatura Precipitaciones Viento Presión Humedad
    00:00 +21°C° 0 mm 1 mps 654 mmHg 91%
    01:00 +21°C° 0 mm 1 mps 654 mmHg 91%
    02:00 +19°C° 0 mm 0 mps 654 mmHg 92%
    03:00 +18°C° 0 mm 0 mps 654 mmHg 92%
    04:00 +18°C° 0 mm 0 mps 654 mmHg 93%
    05:00 +18°C° 0 mm 0 mps 654 mmHg 93%
    06:00 +19°C° 0 mm 0 mps 655 mmHg 91%
    07:00 +20°C° 0 mm 0 mps 655 mmHg 89%
    08:00 +21°C° 0 mm 0 mps 656 mmHg 87%
    09:00 +23°C° 0 mm 0 mps 656 mmHg 80%
    10:00 +26°C° 0 mm 0 mps 657 mmHg 72%
    11:00 +28°C° 0 mm 0 mps 657 mmHg 64%
    12:00 +30°C° 0.2 mm 1 mps 656 mmHg 64%
    13:00 +30°C° 0.2 mm 1 mps 656 mmHg 64%
    14:00 +30°C° 0.2 mm 1 mps 655 mmHg 65%
    15:00 +29°C° 0.4 mm 1 mps 654 mmHg 69%
    16:00 +28°C° 0.4 mm 1 mps 654 mmHg 74%
    17:00 +27°C° 0.4 mm 1 mps 653 mmHg 79%
    18:00 +26°C° 0.2 mm 1 mps 654 mmHg 82%
    19:00 +22°C° 0.2 mm 0 mps 654 mmHg 85%
    20:00 +20°C° 0.2 mm 0 mps 654 mmHg 88%
    21:00 +20°C° 0.9 mm 0 mps 654 mmHg 90%
    22:00 +22°C° 0.9 mm 1 mps 654 mmHg 91%
    23:00 +21°C° 0.9 mm 1 mps 654 mmHg 92%
    Mostrar más